Location: Coupvray
(48.8929°N, 2.7967°E)
Time: 10:13:57
(UTC+00:00)

Altair 2 - Pass Details

Date: 17 January 2021
Orbit: 837 x 949 km, 90.2° (Epoch: 26 February)

Event Time Altitude Azimuth Distance (km) Brightness Sun altitude
Rises 19:20:51 0° 204° (SSW) 3,407 11.1 -28.7°
Reaches altitude 10° 19:23:29 10° 214° (SSW) 2,465 10.5 -29.1°
Maximum altitude 19:28:26 33° 278° (W) 1,373 9.3 -29.9°
Drops below altitude 10° 19:33:23 10° 342° (NNW) 2,463 10.3 -30.7°
Sets 19:36:01 0° 352° (N) 3,404 11.0 -31.2°
